[[{"header":{"parameterUnit":"m.s-1","parameterCategory":1,"la1":30.2991,"la2":30.254,"lo1":-89.0895,"lo2":-89.0444,"dy":0.0017,"dx":0.0017,"nx":28,"ny":28,"refTime":"2024-10-07T03:00:00:Z","depth":0,"parameterNumber":2,"parameterNumberName":"U-component_of_WINDS"},"data":[0,0,0,0,0,0,0,0,0,0,0,0,0,0,0,0,0,0,0,0,0,0,0,0,0,0,0,0,0,0,0,0,0,0,0,0,0,0,0,0,0,0,0,0,0,0,0,0,0,0,0,0,0,0,0,0,0,0,-0.656,-0.656,0,-0.6568,-0.6568,-0.6568,-0.6546,-0.6545,-0.6544,-0.6544,-0.6554,-0.6555,-0.6556,0,0,0,0,0,0,0,0,0,0,0,0,0,-0.6527,-0.6528,-0.656,-0.656,-0.656,-0.6568,-0.6568,-0.6568,-0.6546,-0.6545,-0.6544,-0.6543,-0.6554,-0.6555,-0.6556,0,0,0,0,0,0,0,0,0,0,0,0,0,-0.6539,-0.6528,-0.656,-0.655,-0.6549,-0.6568,-0.6568,-0.6568,-0.6546,-0.6545,-0.6544,-0.6543,-0.6554,-0.6555,-0.6556,-0.6585,0,0,-0.656,-0.6561,0,0,0,0,0,0,0,0,-0.6538,-0.654,-0.6551,-0.655,-0.655,-0.6555,-0.656,-0.6574,-0.6546,-0.6547,-0.6544,-0.6543,-0.6555,-0.6556,-0.656,-0.6586,-0.6586,-0.6561,-0.6561,-0.6562,-0.6562,0,0,0,0,0,0,0,-0.6538,-0.654,-0.6563,-0.6551,-0.655,-0.6546,-0.6546,-0.6563,-0.6557,-0.6547,-0.6545,-0.6547,-0.6555,-0.6559,-0.656,-0.6587,-0.6561,-0.6562,-0.6563,-0.6563,-0.6637,-0.6639,0,0,0,0,0,0,-0.6538,-0.6539,-0.6563,-0.6563,-0.6541,-0.6547,-0.6548,-0.6554,-0.6557,-0.6556,-0.6548,-0.6546,-0.6557,-0.6559,-0.6561,-0.6596,-0.6562,-0.6563,-0.6564,-0.6636,-0.6638,-0.6639,0,0,0,0,0,0,-0.6537,-0.654,-0.6562,-0.6551,-0.6553,-0.6549,-0.6556,-0.6555,-0.6559,-0.6557,-0.6556,-0.6553,-0.6556,-0.6559,-0.658,-0.6596,-0.6564,-0.6565,-0.6635,-0.6637,-0.6638,-0.6666,0,0,0,0,0,0,-0.6536,-0.654,-0.6551,-0.6551,-0.6554,-0.658,-0.6557,-0.6556,-0.6561,-0.6559,-0.6562,-0.6561,-0.6556,-0.6578,-0.6581,-0.6597,-0.6566,-0.6634,-0.6636,-0.6638,-0.6664,-0.6669,-0.6673,0,0,0,0,0,-0.6535,-0.6558,-0.6551,-0.6554,-0.6567,-0.6581,-0.6583,-0.6576,-0.6563,-0.6574,-0.6572,-0.6561,-0.6593,-0.658,-0.6583,-0.6601,-0.6632,-0.6635,-0.6638,-0.6662,-0.6668,-0.6673,0,0,0,0,0,0,-0.6561,-0.6558,-0.655,-0.6574,-0.6578,-0.6578,-0.6591,-0.6582,-0.659,-0.6588,-0.6578,-0.6579,-0.6602,-0.6603,-0.6588,-0.6629,-0.6611,-0.6614,-0.6628,-0.6634,-0.6638,-0.6638,-0.6567,0,0,0,0,0,-0.6569,-0.658,-0.6578,-0.6599,-0.6601,-0.6596,-0.6602,-0.6596,-0.66,-0.6602,-0.6602,-0.6607,-0.6618,-0.6626,-0.6636,-0.6663,-0.6665,-0.6677,-0.6681,-0.6685,-0.6689,-0.6705,-0.6711,-0.6647,-0.6647,-0.6647,0,0,-0.6587,-0.6586,-0.6594,-0.6604,-0.6606,-0.6619,-0.6598,-0.6612,-0.6622,-0.6604,-0.6624,-0.6624,-0.6629,-0.6654,-0.6664,-0.6655,-0.6706,-0.6688,-0.6691,-0.6693,-0.6708,-0.6714,-0.6719,-0.6649,-0.6649,-0.6649,0,0,-0.6625,-0.6626,-0.6644,-0.6647,-0.665,-0.6646,-0.6651,-0.6652,-0.6651,-0.667,-0.6658,-0.6669,-0.6688,-0.6693,-0.6698,-0.6738,-0.6728,-0.6741,-0.6765,-0.6781,-0.6786,-0.679,-0.6806,-0.6811,-0.6744,-0.6744,-0.6744,0,-0.6647,-0.6665,-0.6655,-0.667,-0.6675,-0.6659,-0.6678,-0.6681,-0.6688,-0.6692,-0.6681,-0.6706,-0.6708,-0.6734,-0.6743,-0.6747,-0.6753,-0.6741,-0.6786,-0.679,-0.6794,-0.6809,-0.6815,-0.6746,-0.6746,-0.6746,-0.6746,0,-0.6692,-0.6705,-0.6719,-0.6726,-0.6732,-0.6749,-0.6743,-0.6751,-0.6744,-0.6741,-0.6762,-0.6763,-0.6774,-0.6779,-0.6773,-0.6805,-0.6799,-0.6787,-0.6769,-0.6802,-0.6816,-0.6821,-0.6748,-0.6748,-0.6747,-0.6747,0,0,-0.6748,-0.6748,-0.6754,-0.6757,-0.6759,-0.677,-0.6786,-0.6796,-0.6803,-0.6808,-0.6823,-0.684,-0.6829,-0.6834,-0.6828,-0.6841,-0.6874,-0.6828,-0.6828,-0.6837,-0.6911,-0.6921,-0.6928,-0.6867,-0.6868,-0.6869,-0.6911,0,-0.6787,-0.6815,-0.6806,-0.6835,-0.6847,-0.6832,-0.6846,-0.685,-0.6848,-0.6859,-0.6857,-0.6869,-0.6853,-0.6856,-0.6868,-0.6868,-0.6889,-0.6864,-0.6882,-0.6883,-0.6883,-0.6935,-0.6945,-0.6985,-0.6916,-0.6917,-0.6918,0,-0.6837,-0.6844,-0.6873,-0.6874,-0.6879,-0.6892,-0.69,-0.691,-0.6914,-0.6912,-0.6918,-0.6909,-0.6926,-0.6906,-0.6931,-0.6914,-0.692,-0.6921,-0.6922,-0.6925,-0.6903,-0.694,-0.6997,-0.7004,-0.6926,-0.6925,-0.6925,0,-0.6877,-0.6893,-0.6913,-0.6916,-0.6917,-0.6927,-0.6928,-0.693,-0.6937,-0.6944,-0.6949,-0.6958,-0.6964,-0.6972,-0.6966,-0.6952,-0.6992,-0.6971,-0.6992,-0.6992,-0.7002,-0.7002,-0.7063,-0.7004,-0.7004,-0.7004,-0.7004,0,-0.6922,-0.6941,-0.6931,-0.6943,-0.6964,-0.6954,-0.6976,-0.6975,-0.6978,-0.6991,-0.6977,-0.699,-0.6981,-0.6993,-0.6988,-0.701,-0.7012,-0.7012,-0.7011,-0.7014,-0.7014,-0.7019,-0.7017,-0.7005,-0.7005,-0.7005,-0.7004,0,-0.6971,-0.6964,-0.6985,-0.6984,-0.6984,-0.7,-0.7,-0.7012,-0.7009,-0.7025,-0.7028,-0.7024,-0.7037,-0.7032,-0.7046,-0.7043,-0.7071,-0.7065,-0.707,-0.7069,-0.709,-0.7089,-0.7157,-0.7166,-0.7101,-0.7101,-0.7102,0,-0.7001,-0.7015,-0.7016,-0.7023,-0.7025,-0.7036,-0.7043,-0.7034,-0.7041,-0.7047,-0.7058,-0.707,-0.708,-0.7102,-0.71,-0.7111,-0.7107,-0.713,-0.7109,-0.7112,-0.7109,-0.7109,-0.7111,-0.7135,-0.7136,-0.7136,-0.7137,0,-0.7056,-0.7052,-0.7061,-0.707,-0.7078,-0.7084,-0.7089,-0.7096,-0.7087,-0.7096,-0.7109,-0.7117,-0.7131,-0.7144,-0.7153,-0.7155,-0.7145,-0.7143,-0.7149,-0.7153,-0.7156,-0.7156,-0.7083,-0.7142,-0.7142,-0.7141,-0.7141,-0.7141,-0.7097,-0.7109,-0.7112,-0.7123,-0.7126,-0.7131,-0.7142,-0.714,-0.7151,-0.7161,-0.7155,-0.7171,-0.7175,-0.7187,-0.719,-0.7203,-0.7194,-0.7202,-0.7204,-0.7207,-0.721,-0.7152,-0.7205,-0.7205,-0.7204,-0.7204,-0.7204,0,-0.7152,-0.7153,-0.7163,-0.7171,-0.718,-0.7168,-0.7173,-0.7182,-0.7196,-0.72,-0.7209,-0.7225,-0.7237,-0.7236,-0.7248,-0.7258,-0.7254,-0.7262,-0.7262,-0.7263,-0.7217,-0.7211,-0.7265,-0.7265,-0.7265,-0.7265,-0.7265,-0.7265,-0.7182,-0.7203,-0.7199,-0.7221,-0.7222,-0.7237,-0.7241,-0.7246,-0.7249,-0.7267,-0.7277,-0.7276,-0.7278,-0.729,-0.7301,-0.73,-0.7306,-0.7316,-0.7314,-0.7272,-0.7266,-0.726,-0.7255,-0.7317,-0.7317,-0.7359,-0.7359,-0.7359]},{"header":{"parameterUnit":"m.s-1","parameterCategory":1,"la1":30.2991,"la2":30.254,"lo1":-89.0895,"lo2":-89.0444,"dy":0.0017,"dx":0.0017,"nx":28,"ny":28,"refTime":"2024-10-07T03:00:00:Z","depth":0,"parameterNumber":3,"parameterNumberName":"V-component_of_WINDS"},"data":[0,0,0,0,0,0,0,0,0,0,0,0,0,0,0,0,0,0,0,0,0,0,0,0,0,0,0,0,0,0,0,0,0,0,0,0,0,0,0,0,0,0,0,0,0,0,0,0,0,0,0,0,0,0,0,0,0,0,-4.1853,-4.1854,0,-4.1917,-4.1918,-4.1919,-4.19,-4.1899,-4.1898,-4.1896,-4.1957,-4.196,-4.1963,0,0,0,0,0,0,0,0,0,0,0,0,0,-4.1712,-4.1715,-4.1853,-4.1854,-4.1855,-4.1917,-4.1918,-4.1919,-4.1901,-4.1899,-4.1897,-4.1896,-4.1956,-4.196,-4.1963,0,0,0,0,0,0,0,0,0,0,0,0,0,-4.1774,-4.1715,-4.1853,-4.1853,-4.1854,-4.1917,-4.1918,-4.1919,-4.1901,-4.1899,-4.1897,-4.1895,-4.1955,-4.1959,-4.1963,-4.2028,0,0,-4.1976,-4.1978,0,0,0,0,0,0,0,0,-4.1771,-4.1779,-4.1853,-4.1853,-4.1854,-4.1899,-4.189,-4.1955,-4.1901,-4.1883,-4.1896,-4.1894,-4.1939,-4.1944,-4.196,-4.2031,-4.2034,-4.1977,-4.1979,-4.1981,-4.1982,0,0,0,0,0,0,0,-4.1766,-4.1776,-4.1878,-4.1854,-4.1855,-4.1849,-4.1856,-4.1902,-4.1921,-4.1884,-4.1883,-4.1891,-4.1939,-4.1956,-4.1962,-4.2035,-4.1977,-4.198,-4.1983,-4.1985,-4.2163,-4.2165,0,0,0,0,0,0,-4.1762,-4.1773,-4.1876,-4.188,-4.1807,-4.1853,-4.1861,-4.1886,-4.192,-4.1924,-4.1893,-4.189,-4.195,-4.1957,-4.1964,-4.2043,-4.1981,-4.1985,-4.1987,-4.2161,-4.2163,-4.2166,0,0,0,0,0,0,-4.1759,-4.1771,-4.1874,-4.1826,-4.1839,-4.1858,-4.1887,-4.1889,-4.1906,-4.1927,-4.193,-4.1908,-4.1949,-4.1958,-4.2013,-4.2045,-4.1987,-4.1991,-4.2158,-4.2162,-4.2165,-4.2202,0,0,0,0,0,0,-4.1755,-4.177,-4.1796,-4.1827,-4.1842,-4.1923,-4.1889,-4.1891,-4.1914,-4.1911,-4.1941,-4.1944,-4.1948,-4.2007,-4.2017,-4.205,-4.1994,-4.2155,-4.216,-4.2163,-4.2198,-4.2206,-4.2213,0,0,0,0,0,-4.175,-4.1803,-4.1797,-4.181,-4.1874,-4.1925,-4.1933,-4.1938,-4.1917,-4.1942,-4.1956,-4.1943,-4.204,-4.2013,-4.2024,-4.2058,-4.2153,-4.2158,-4.2163,-4.2194,-4.2204,-4.2213,0,0,0,0,0,0,-4.1773,-4.1807,-4.1801,-4.1866,-4.1893,-4.1922,-4.1954,-4.1948,-4.198,-4.1976,-4.1978,-4.1985,-4.2042,-4.2056,-4.2025,-4.2124,-4.2093,-4.2101,-4.2113,-4.2123,-4.213,-4.2126,-4.1998,0,0,0,0,0,-4.1785,-4.1825,-4.1852,-4.1906,-4.192,-4.1935,-4.1957,-4.1959,-4.1986,-4.1997,-4.2014,-4.204,-4.2077,-4.21,-4.2134,-4.2199,-4.2206,-4.2229,-4.2236,-4.2242,-4.2249,-4.2285,-4.2296,-4.2182,-4.2182,-4.2182,0,0,-4.1811,-4.1835,-4.186,-4.1911,-4.1933,-4.1973,-4.1945,-4.1988,-4.2018,-4.2003,-4.2057,-4.2071,-4.21,-4.2161,-4.2188,-4.2173,-4.2282,-4.2249,-4.2253,-4.2257,-4.2292,-4.2302,-4.2312,-4.2185,-4.2185,-4.2184,0,0,-4.188,-4.1902,-4.195,-4.1973,-4.2006,-4.2016,-4.2027,-4.2058,-4.2067,-4.2122,-4.2112,-4.2146,-4.2208,-4.223,-4.2249,-4.2328,-4.2318,-4.2339,-4.2378,-4.2414,-4.2423,-4.2431,-4.246,-4.247,-4.2345,-4.2345,-4.2345,0,-4.1908,-4.197,-4.1975,-4.2021,-4.2044,-4.2035,-4.2083,-4.2104,-4.2146,-4.2162,-4.2145,-4.2224,-4.2243,-4.2309,-4.2329,-4.2344,-4.2357,-4.2335,-4.2421,-4.2429,-4.2437,-4.2465,-4.2475,-4.2348,-4.2347,-4.2347,-4.2347,0,-4.2003,-4.2046,-4.2081,-4.2124,-4.2151,-4.2198,-4.221,-4.2236,-4.2235,-4.2246,-4.2302,-4.2325,-4.2364,-4.238,-4.2378,-4.2446,-4.2437,-4.2421,-4.239,-4.245,-4.2476,-4.2487,-4.2351,-4.235,-4.2349,-4.2349,0,0,-4.2087,-4.2135,-4.2147,-4.2168,-4.2204,-4.2237,-4.2283,-4.2324,-4.2346,-4.2376,-4.2414,-4.2468,-4.2454,-4.2476,-4.2477,-4.2508,-4.257,-4.2488,-4.2489,-4.2503,-4.2647,-4.266,-4.2672,-4.2564,-4.2566,-4.2567,-4.2645,0,-4.216,-4.2243,-4.225,-4.2324,-4.2364,-4.2357,-4.2397,-4.2423,-4.2435,-4.247,-4.2482,-4.252,-4.2499,-4.2512,-4.2542,-4.2556,-4.2599,-4.255,-4.2599,-4.2601,-4.2593,-4.2685,-4.2698,-4.277,-4.2655,-4.2657,-4.2658,0,-4.2255,-4.2291,-4.237,-4.2402,-4.2419,-4.2455,-4.2494,-4.2527,-4.2557,-4.2563,-4.2589,-4.2586,-4.2632,-4.26,-4.2665,-4.2632,-4.2652,-4.2662,-4.2664,-4.2669,-4.2634,-4.2693,-4.2793,-4.2805,-4.2674,-4.2673,-4.2672,0,-4.231,-4.2377,-4.2433,-4.245,-4.249,-4.2515,-4.2533,-4.2561,-4.2585,-4.2618,-4.2634,-4.2671,-4.2691,-4.272,-4.2727,-4.2703,-4.2791,-4.2759,-4.2798,-4.2798,-4.2817,-4.2816,-4.2922,-4.2829,-4.2829,-4.2828,-4.2828,0,-4.2391,-4.244,-4.2459,-4.2493,-4.2548,-4.2555,-4.2608,-4.2624,-4.2649,-4.2686,-4.268,-4.2715,-4.2722,-4.2757,-4.2763,-4.2816,-4.2825,-4.2831,-4.2832,-4.2832,-4.2831,-4.2845,-4.2841,-4.2831,-4.2831,-4.283,-4.283,0,-4.2461,-4.2476,-4.2537,-4.257,-4.2579,-4.2618,-4.2646,-4.2679,-4.269,-4.2737,-4.2748,-4.2766,-4.2808,-4.2818,-4.2867,-4.2871,-4.2934,-4.293,-4.2925,-4.2925,-4.2963,-4.2959,-4.3083,-4.31,-4.2994,-4.2995,-4.2996,0,-4.2512,-4.255,-4.2588,-4.2613,-4.2633,-4.2673,-4.2699,-4.2707,-4.2734,-4.2771,-4.28,-4.2841,-4.2875,-4.2942,-4.2959,-4.2997,-4.2993,-4.3034,-4.2999,-4.2998,-4.2995,-4.2993,-4.2997,-4.3041,-4.3042,-4.3043,-4.3044,0,-4.2601,-4.2607,-4.2645,-4.2687,-4.2718,-4.275,-4.2781,-4.2801,-4.2814,-4.2844,-4.2888,-4.2915,-4.2966,-4.3008,-4.3046,-4.3062,-4.3055,-4.3055,-4.3066,-4.3066,-4.3063,-4.3066,-4.2944,-4.3052,-4.3051,-4.305,-4.305,-4.305,-4.2664,-4.2698,-4.2731,-4.2774,-4.2798,-4.2828,-4.2861,-4.2878,-4.2915,-4.2959,-4.2961,-4.3009,-4.3038,-4.309,-4.3108,-4.3145,-4.3133,-4.3148,-4.3152,-4.3156,-4.316,-4.3057,-4.3152,-4.3152,-4.3151,-4.3151,-4.3151,0,-4.2754,-4.2775,-4.2815,-4.2859,-4.2893,-4.2885,-4.2919,-4.2948,-4.2991,-4.3019,-4.3054,-4.3105,-4.3145,-4.3166,-4.3206,-4.3231,-4.3229,-4.3242,-4.324,-4.3244,-4.3169,-4.3156,-4.3243,-4.3243,-4.3243,-4.3243,-4.3243,-4.3243,-4.2805,-4.2862,-4.2872,-4.2942,-4.2962,-4.3011,-4.3031,-4.3058,-4.3081,-4.3139,-4.3174,-4.3187,-4.3213,-4.3255,-4.3291,-4.3296,-4.3311,-4.3326,-4.3329,-4.3258,-4.3249,-4.324,-4.3228,-4.3329,-4.3329,-4.3401,-4.3402,-4.3403]}]]